| time (UTC) | temp F | wind direction | speed MPH | gust MPH | rain 1hr in | rain 24hr in | rain mn in | humidity % | barometer mb |
| 20260903065019 | 67 | 0 | 0.0 | 0.0 | 0.00 | 0.95 | 0.00 | 94 | 1013.8 |
| 20260903064538 | 67 | 0 | 0.0 | 0.0 | 0.00 | 0.95 | 0.00 | 94 | 1013.9 |
| 20260903064019 | 67 | 0 | 0.0 | 0.0 | 0.00 | 0.95 | 0.00 | 94 | 1013.9 |
| 20260903063519 | 67 | 0 | 0.0 | 0.0 | 0.00 | 0.95 | 0.00 | 94 | 1014.0 |
| 20260903063045 | 67 | 0 | 0.0 | 0.0 | 0.00 | 0.95 | 0.00 | 94 | 1014.0 |
| 20260903062518 | 68 | 0 | 0.0 | 0.0 | 0.00 | 0.95 | 0.00 | 94 | 1014.1 |
| 20260903062020 | 68 | 0 | 0.0 | 0.0 | 0.00 | 0.95 | 0.00 | 94 | 1014.1 |
| 20260903061539 | 68 | 0 | 0.0 | 0.0 | 0.00 | 0.95 | 0.00 | 94 | 1014.2 |
| 20260903061022 | 68 | 0 | 0.0 | 1.0 | 0.00 | 0.95 | 0.00 | 94 | 1014.2 |
| 20260903060520 | 68 | 0 | 0.0 | 1.0 | 0.00 | 0.95 | 0.00 | 94 | 1014.6 |
| 20260903060107 | 68 | 0 | 0.0 | 0.0 | 0.00 | 0.95 | 0.00 | 94 | 1014.6 |
| 20260903055523 | 68 | 0 | 0.0 | 0.0 | 0.00 | 0.95 | 0.00 | 94 | 1014.6 |
| 20260903055019 | 68 | 0 | 0.0 | 1.0 | 0.00 | 0.95 | 0.00 | 94 | 1014.6 |
| 20260903054536 | 68 | 0 | 0.0 | 1.0 | 0.00 | 0.95 | 0.00 | 94 | 1014.6 |
| 20260903054019 | 68 | 0 | 0.0 | 1.0 | 0.00 | 0.95 | 0.00 | 94 | 1014.6 |
| 20260903053519 | 68 | 0 | 0.0 | 1.0 | 0.00 | 0.95 | 0.00 | 94 | 1014.6 |
| 20260903053038 | 68 | 0 | 0.0 | 1.0 | 0.00 | 0.95 | 0.00 | 94 | 1014.6 |
| 20260903052519 | 68 | 0 | 0.0 | 1.0 | 0.00 | 0.95 | 0.00 | 94 | 1014.6 |
| 20260903052016 | 68 | 0 | 0.0 | 1.0 | 0.00 | 0.95 | 0.00 | 94 | 1014.4 |
| 20260903051539 | 68 | 0 | 0.0 | 1.0 | 0.00 | 0.95 | 0.00 | 94 | 1014.2 |
| 20260903051016 | 68 | 0 | 0.0 | 0.0 | 0.00 | 0.95 | 0.00 | 94 | 1014.2 |
| 20260903050517 | 68 | 0 | 0.0 | 1.0 | 0.00 | 0.95 | 0.00 | 94 | 1014.1 |
| 20260903050040 | 68 | 0 | 0.0 | 1.0 | 0.00 | 0.95 | 0.00 | 94 | 1014.1 |
| 20260903045520 | 68 | 0 | 0.0 | 0.0 | 0.00 | 0.95 | 0.00 | 94 | 1014.1 |
| 20260903045019 | 68 | 0 | 0.0 | 1.0 | 0.00 | 0.95 | 0.00 | 94 | 1014.2 |
| 20260903044540 | 68 | 0 | 0.0 | 1.0 | 0.00 | 0.95 | 0.00 | 94 | 1014.1 |
| 20260903044021 | 68 | 0 | 0.0 | 1.0 | 0.00 | 0.95 | 0.00 | 94 | 1014.2 |
| 20260903043520 | 68 | 0 | 0.0 | 0.0 | 0.00 | 0.95 | 0.00 | 94 | 1014.0 |
| 20260903043038 | 68 | 0 | 0.0 | 0.0 | 0.00 | 0.95 | 0.00 | 94 | 1013.9 |
| 20260903042516 | 68 | 0 | 0.0 | 1.0 | 0.00 | 0.95 | 0.00 | 94 | 1013.9 |
| 20260903042019 | 68 | 0 | 0.0 | 1.0 | 0.00 | 0.95 | 0.00 | 94 | 1013.8 |
| 20260903041540 | 68 | 0 | 0.0 | 0.0 | 0.00 | 0.95 | 0.00 | 94 | 1013.9 |
| 20260903041017 | 68 | 0 | 0.0 | 0.0 | 0.00 | 0.95 | 0.00 | 94 | 1013.7 |
| 20260903040516 | 68 | 0 | 0.0 | 1.0 | 0.00 | 0.95 | 0.00 | 94 | 1013.3 |
| 20260903040050 | 68 | 0 | 0.0 | 1.0 | 0.00 | 0.95 | 0.00 | 94 | 1013.1 |
| 20260903035517 | 68 | 0 | 0.0 | 1.0 | 0.00 | 0.95 | 0.95 | 94 | 1013.5 |
| 20260903035017 | 68 | 0 | 0.0 | 1.0 | 0.00 | 0.95 | 0.95 | 94 | 1013.5 |
| 20260903034542 | 68 | 0 | 0.0 | 1.0 | 0.00 | 0.95 | 0.95 | 94 | 1013.4 |
| 20260903034019 | 68 | 0 | 0.0 | 1.0 | 0.00 | 0.95 | 0.95 | 94 | 1013.5 |
| 20260903033518 | 69 | 0 | 0.0 | 1.0 | 0.00 | 0.95 | 0.95 | 94 | 1013.5 |
| 20260903033037 | 69 | 0 | 0.0 | 1.0 | 0.00 | 0.95 | 0.95 | 94 | 1013.4 |
| 20260903032518 | 69 | 0 | 0.0 | 0.0 | 0.00 | 0.95 | 0.95 | 94 | 1013.1 |
| 20260903032015 | 69 | 0 | 0.0 | 0.0 | 0.00 | 0.95 | 0.95 | 94 | 1013.1 |
| 20260903031534 | 69 | 0 | 0.0 | 1.0 | 0.00 | 0.95 | 0.95 | 94 | 1013.0 |
| 20260903031018 | 69 | 0 | 0.0 | 1.0 | 0.00 | 0.95 | 0.95 | 94 | 1012.9 |
| 20260903030518 | 69 | 0 | 0.0 | 2.0 | 0.00 | 0.95 | 0.95 | 94 | 1013.1 |
| 20260903030035 | 69 | 0 | 0.0 | 2.0 | 0.00 | 0.95 | 0.95 | 94 | 1013.2 |
| 20260903025520 | 68 | 338 | 0.0 | 2.0 | 0.00 | 0.95 | 0.95 | 94 | 1013.3 |
| 20260903025017 | 68 | 338 | 0.0 | 2.0 | 0.00 | 0.95 | 0.95 | 94 | 1013.7 |
| 20260903024535 | 69 | 0 | 0.0 | 1.0 | 0.03 | 0.95 | 0.95 | 94 | 1013.6 |
| 20260903024018 | 69 | 338 | 0.0 | 2.0 | 0.22 | 0.95 | 0.95 | 94 | 1013.6 |
| 20260903023518 | 69 | 0 | 0.0 | 2.0 | 0.23 | 0.95 | 0.95 | 94 | 1013.6 |
| 20260903023049 | 68 | 338 | 0.0 | 2.0 | 0.25 | 0.95 | 0.95 | 94 | 1013.8 |
| 20260903022517 | 68 | 0 | 0.0 | 2.0 | 0.25 | 0.95 | 0.95 | 94 | 1013.9 |
| 20260903022017 | 68 | 338 | 0.0 | 2.0 | 0.25 | 0.95 | 0.95 | 94 | 1014.0 |
| 20260903021534 | 68 | 338 | 1.0 | 2.0 | 0.25 | 0.95 | 0.95 | 94 | 1014.2 |
| 20260903021019 | 68 | 316 | 0.0 | 1.0 | 0.26 | 0.95 | 0.95 | 94 | 1013.8 |
| 20260903020517 | 68 | 316 | 0.0 | 1.0 | 0.28 | 0.95 | 0.95 | 94 | 1013.8 |
| 20260903020036 | 68 | 0 | 0.0 | 4.0 | 0.28 | 0.95 | 0.95 | 94 | 1013.6 |
| 20260903015518 | 68 | 0 | 0.0 | 5.0 | 0.28 | 0.95 | 0.95 | 94 | 1013.9 |
| 20260903015018 | 68 | 168 | 0.0 | 6.0 | 0.27 | 0.94 | 0.94 | 94 | 1013.9 |
| 20260903014545 | 68 | 133 | 2.0 | 6.0 | 0.21 | 0.88 | 0.88 | 93 | 1014.4 |
| 20260903014018 | 68 | 0 | 0.0 | 3.0 | 0.05 | 0.72 | 0.72 | 93 | 1015.4 |
| 20260903013516 | 68 | 0 | 0.0 | 3.0 | 0.03 | 0.70 | 0.70 | 93 | 1015.1 |
| 20260903013043 | 68 | 94 | 0.0 | 2.0 | 0.02 | 0.69 | 0.69 | 93 | 1014.4 |
| 20260903012516 | 68 | 0 | 0.0 | 3.0 | 0.02 | 0.69 | 0.69 | 93 | 1014.3 |
| 20260903012020 | 68 | 94 | 0.0 | 3.0 | 0.02 | 0.69 | 0.69 | 93 | 1014.2 |
| 20260903011536 | 68 | 29 | 1.0 | 3.0 | 0.02 | 0.69 | 0.69 | 93 | 1013.8 |
| 20260903011020 | 68 | 211 | 0.0 | 2.0 | 0.00 | 0.67 | 0.67 | 93 | 1014.3 |
| 20260903010045 | 68 | 233 | 0.0 | 2.0 | 0.00 | 0.66 | 0.66 | 93 | 1014.9 |
| 20260903005522 | 68 | 0 | 0.0 | 1.0 | 0.01 | 0.66 | 0.66 | 93 | 1014.9 |
| 20260903005021 | 68 | 0 | 0.0 | 1.0 | 0.01 | 0.66 | 0.66 | 93 | 1014.3 |
| 20260903004535 | 68 | 0 | 0.0 | 2.0 | 0.02 | 0.66 | 0.66 | 93 | 1014.0 |
| 20260903004018 | 68 | 0 | 0.0 | 2.0 | 0.03 | 0.66 | 0.66 | 93 | 1013.8 |
| 20260903003516 | 68 | 131 | 0.0 | 1.0 | 0.03 | 0.66 | 0.66 | 93 | 1013.6 |
| 20260903003039 | 68 | 0 | 0.0 | 2.0 | 0.02 | 0.66 | 0.66 | 93 | 1013.6 |
| 20260903002516 | 69 | 0 | 0.0 | 2.0 | 0.02 | 0.66 | 0.66 | 93 | 1013.8 |
| 20260903002020 | 69 | 121 | 0.0 | 2.0 | 0.02 | 0.66 | 0.66 | 93 | 1013.7 |
| 20260903001538 | 69 | 47 | 0.0 | 2.0 | 0.02 | 0.66 | 0.66 | 93 | 1013.3 |
| 20260903001018 | 69 | 0 | 0.0 | 2.0 | 0.02 | 0.66 | 0.66 | 93 | 1012.8 |
| 20260903000519 | 69 | 46 | 1.0 | 2.0 | 0.02 | 0.66 | 0.66 | 94 | 1013.1 |
| 20260903000035 | 68 | 0 | 0.0 | 1.0 | 0.02 | 0.66 | 0.66 | 93 | 1013.5 |
| 20260902235519 | 68 | 63 | 0.0 | 1.0 | 0.01 | 0.65 | 0.65 | 93 | 1013.8 |
| 20260902235021 | 68 | 0 | 0.0 | 1.0 | 0.01 | 0.65 | 0.65 | 93 | 1013.9 |
| 20260902234551 | 68 | 0 | 0.0 | 1.0 | 0.00 | 0.64 | 0.64 | 93 | 1014.0 |
| 20260902234022 | 68 | 0 | 0.0 | 1.0 | 0.00 | 0.63 | 0.63 | 93 | 1014.0 |
| 20260902233516 | 68 | 0 | 0.0 | 1.0 | 0.00 | 0.63 | 0.63 | 93 | 1014.1 |
| 20260902233037 | 68 | 0 | 0.0 | 1.0 | 0.00 | 0.63 | 0.63 | 93 | 1013.6 |
| 20260902232519 | 69 | 63 | 0.0 | 1.0 | 0.00 | 0.63 | 0.63 | 93 | 1013.6 |
| 20260902232017 | 69 | 0 | 0.0 | 0.0 | 0.00 | 0.63 | 0.63 | 93 | 1013.7 |
| 20260902231543 | 69 | 0 | 0.0 | 0.0 | 0.00 | 0.63 | 0.63 | 93 | 1013.7 |
| 20260902231017 | 69 | 0 | 0.0 | 0.0 | 0.00 | 0.63 | 0.63 | 93 | 1014.0 |
| 20260902230519 | 69 | 0 | 0.0 | 0.0 | 0.00 | 0.63 | 0.63 | 93 | 1013.8 |
| 20260902230039 | 69 | 0 | 0.0 | 0.0 | 0.00 | 0.63 | 0.63 | 93 | 1013.9 |
| 20260902225519 | 69 | 0 | 0.0 | 0.0 | 0.00 | 0.63 | 0.63 | 93 | 1014.1 |
| 20260902225020 | 69 | 0 | 0.0 | 0.0 | 0.00 | 0.63 | 0.63 | 93 | 1013.7 |
| 20260902224542 | 69 | 0 | 0.0 | 1.0 | 0.03 | 0.63 | 0.63 | 93 | 1013.7 |
| 20260902224018 | 68 | 0 | 0.0 | 1.0 | 0.03 | 0.63 | 0.63 | 93 | 1013.7 |
| 20260902223516 | 68 | 0 | 0.0 | 1.0 | 0.03 | 0.63 | 0.63 | 93 | 1013.5 |
| 20260902223037 | 68 | 0 | 0.0 | 1.0 | 0.03 | 0.63 | 0.63 | 93 | 1013.4 |
| 20260902222516 | 68 | 0 | 0.0 | 1.0 | 0.03 | 0.63 | 0.63 | 93 | 1013.2 |
| 20260902222017 | 68 | 63 | 0.0 | 1.0 | 0.03 | 0.63 | 0.63 | 93 | 1013.2 |
| 20260902221536 | 67 | 58 | 0.0 | 2.0 | 0.03 | 0.63 | 0.63 | 93 | 1013.3 |
| 20260902221021 | 67 | 0 | 0.0 | 2.0 | 0.03 | 0.63 | 0.63 | 92 | 1013.5 |
| 20260902220520 | 67 | 0 | 0.0 | 3.0 | 0.03 | 0.63 | 0.63 | 92 | 1013.7 |
| 20260902220037 | 67 | 0 | 1.0 | 3.0 | 0.03 | 0.63 | 0.63 | 92 | 1013.8 |
| 20260902215520 | 67 | 0 | 0.0 | 3.0 | 0.03 | 0.63 | 0.63 | 91 | 1013.7 |
| 20260902215019 | 67 | 26 | 1.0 | 3.0 | 0.02 | 0.62 | 0.62 | 91 | 1013.9 |
| 20260902214017 | 67 | 0 | 1.0 | 8.0 | 0.44 | 0.59 | 0.59 | 90 | 1015.1 |
| 20260902213519 | 67 | 288 | 1.0 | 8.0 | 0.41 | 0.57 | 0.57 | 88 | 1014.8 |
| 20260902213034 | 68 | 297 | 2.0 | 6.0 | 0.17 | 0.33 | 0.33 | 85 | 1015.3 |
| 20260902210036 | 81 | 0 | 0.0 | 0.0 | 0.00 | 0.15 | 0.15 | 73 | 1012.8 |
| 20260902205518 | 81 | 0 | 0.0 | 1.0 | 0.00 | 0.15 | 0.15 | 71 | 1013.1 |
| 20260902205019 | 82 | 0 | 0.0 | 5.0 | 0.00 | 0.15 | 0.15 | 69 | 1012.9 |
| 20260902204537 | 82 | 0 | 1.0 | 5.0 | 0.00 | 0.15 | 0.15 | 70 | 1012.7 |
| 20260902204020 | 82 | 172 | 1.0 | 3.0 | 0.00 | 0.15 | 0.15 | 69 | 1012.4 |
| 20260902203524 | 81 | 0 | 1.0 | 6.0 | 0.00 | 0.15 | 0.15 | 69 | 1012.4 |
| 20260902203035 | 81 | 0 | 0.0 | 6.0 | 0.00 | 0.15 | 0.15 | 66 | 1012.7 |
| 20260902202522 | 81 | 199 | 2.0 | 8.0 | 0.00 | 0.15 | 0.15 | 65 | 1013.1 |
| 20260902202016 | 81 | 172 | 1.0 | 8.0 | 0.00 | 0.15 | 0.15 | 66 | 1013.2 |
| 20260902201540 | 82 | 189 | 2.0 | 8.0 | 0.00 | 0.15 | 0.15 | 60 | 1013.5 |
| 20260902201016 | 84 | 185 | 1.0 | 5.0 | 0.00 | 0.15 | 0.15 | 65 | 1013.1 |
| 20260902200516 | 85 | 204 | 1.0 | 4.0 | 0.00 | 0.15 | 0.15 | 72 | 1013.4 |
| 20260902200034 | 86 | 175 | 0.0 | 2.0 | 0.00 | 0.15 | 0.15 | 76 | 1013.2 |
| 20260902195520 | 86 | 0 | 0.0 | 4.0 | 0.00 | 0.15 | 0.15 | 76 | 1013.2 |
| 20260902195019 | 87 | 0 | 1.0 | 4.0 | 0.00 | 0.15 | 0.15 | 72 | 1013.0 |
| 20260902194537 | 88 | 0 | 0.0 | 3.0 | 0.00 | 0.15 | 0.15 | 74 | 1013.1 |
| 20260902194018 | 88 | 13 | 1.0 | 3.0 | 0.00 | 0.15 | 0.15 | 75 | 1013.0 |
| 20260902193519 | 88 | 214 | 1.0 | 3.0 | 0.00 | 0.15 | 0.15 | 75 | 1013.1 |
| 20260902193034 | 87 | 136 | 1.0 | 7.0 | 0.00 | 0.15 | 0.15 | 76 | 1013.3 |
| 20260902192517 | 87 | 215 | 1.0 | 7.0 | 0.00 | 0.15 | 0.15 | 76 | 1013.5 |
| 20260902192018 | 87 | 195 | 1.0 | 5.0 | 0.00 | 0.15 | 0.15 | 79 | 1013.5 |
| 20260902191537 | 87 | 170 | 1.0 | 3.0 | 0.00 | 0.15 | 0.15 | 79 | 1013.6 |
| 20260902191017 | 86 | 162 | 0.0 | 3.0 | 0.00 | 0.15 | 0.15 | 78 | 1013.6 |
| 20260902190519 | 86 | 194 | 0.0 | 2.0 | 0.00 | 0.15 | 0.15 | 79 | 1013.7 |
| 20260902190037 | 85 | 185 | 0.0 | 2.0 | 0.00 | 0.15 | 0.15 | 83 | 1013.7 |
| 20260902185518 | 85 | 172 | 0.0 | 3.0 | 0.00 | 0.15 | 0.15 | 81 | 1013.8 |
| 20260902185017 | 85 | 266 | 0.0 | 3.0 | 0.00 | 0.15 | 0.15 | 79 | 1014.0 |
| 20260902184538 | 84 | 168 | 0.0 | 3.0 | 0.00 | 0.15 | 0.15 | 79 | 1014.0 |
| 20260902184017 | 84 | 0 | 0.0 | 0.0 | 0.00 | 0.15 | 0.15 | 81 | 1014.0 |
| 20260902183519 | 83 | 0 | 0.0 | 0.0 | 0.00 | 0.15 | 0.15 | 80 | 1013.8 |
| 20260902183040 | 82 | 0 | 0.0 | 0.0 | 0.00 | 0.15 | 0.15 | 85 | 1013.9 |
| 20260902182516 | 82 | 0 | 0.0 | 0.0 | 0.00 | 0.15 | 0.15 | 86 | 1013.9 |
| 20260902182016 | 81 | 0 | 0.0 | 0.0 | 0.06 | 0.15 | 0.15 | 87 | 1014.0 |
| 20260902181537 | 80 | 0 | 0.0 | 0.0 | 0.12 | 0.15 | 0.15 | 90 | 1014.0 |
| 20260902181018 | 80 | 0 | 0.0 | 0.0 | 0.14 | 0.15 | 0.15 | 92 | 1014.0 |
| 20260902180519 | 79 | 0 | 0.0 | 0.0 | 0.15 | 0.15 | 0.15 | 95 | 1014.3 |
| 20260902180052 | 79 | 0 | 0.0 | 0.0 | 0.15 | 0.15 | 0.15 | 95 | 1014.3 |
| 20260902175519 | 78 | 0 | 0.0 | 0.0 | 0.15 | 0.15 | 0.15 | 95 | 1014.4 |
| 20260902175018 | 77 | 0 | 0.0 | 0.0 | 0.15 | 0.15 | 0.15 | 94 | 1014.6 |
| 20260902174536 | 75 | 0 | 0.0 | 1.0 | 0.15 | 0.15 | 0.15 | 93 | 1014.4 |
| 20260902174017 | 74 | 0 | 0.0 | 1.0 | 0.15 | 0.15 | 0.15 | 92 | 1014.5 |
| 20260902173517 | 74 | 0 | 0.0 | 2.0 | 0.15 | 0.15 | 0.15 | 87 | 1014.5 |
| 20260902173040 | 74 | 0 | 0.0 | 3.0 | 0.15 | 0.15 | 0.15 | 82 | 1014.6 |
| 20260902172521 | 77 | 0 | 0.0 | 6.0 | 0.15 | 0.15 | 0.15 | 77 | 1014.7 |
| 20260902172020 | 80 | 309 | 1.0 | 6.0 | 0.07 | 0.07 | 0.07 | 72 | 1014.7 |
| 20260902171548 | 83 | 191 | 0.0 | 5.0 | 0.02 | 0.02 | 0.02 | 83 | 1014.9 |
| 20260902171018 | 84 | 191 | 0.0 | 2.0 | 0.00 | 0.00 | 0.00 | 81 | 1014.9 |
| 20260902170521 | 85 | 0 | 0.0 | 2.0 | 0.00 | 0.00 | 0.00 | 77 | 1015.0 |
| 20260902170039 | 85 | 244 | 0.0 | 3.0 | 0.00 | 0.00 | 0.00 | 77 | 1015.0 |
| 20260902165520 | 85 | 276 | 1.0 | 3.0 | 0.00 | 0.00 | 0.00 | 75 | 1015.2 |
| 20260902165020 | 85 | 243 | 0.0 | 3.0 | 0.00 | 0.00 | 0.00 | 76 | 1015.1 |
| 20260902164539 | 85 | 251 | 0.0 | 3.0 | 0.00 | 0.00 | 0.00 | 78 | 1015.3 |
| 20260902164018 | 85 | 175 | 1.0 | 3.0 | 0.00 | 0.00 | 0.00 | 78 | 1015.1 |
| 20260902163518 | 85 | 0 | 0.0 | 3.0 | 0.00 | 0.00 | 0.00 | 78 | 1015.2 |
| 20260902163036 | 84 | 257 | 1.0 | 3.0 | 0.00 | 0.00 | 0.00 | 78 | 1015.3 |
| 20260902162517 | 84 | 101 | 1.0 | 4.0 | 0.00 | 0.00 | 0.00 | 80 | 1015.4 |
| 20260902162019 | 84 | 200 | 0.0 | 4.0 | 0.00 | 0.00 | 0.00 | 79 | 1015.5 |
| 20260902161541 | 83 | 114 | 1.0 | 4.0 | 0.00 | 0.00 | 0.00 | 82 | 1015.5 |
| 20260902161018 | 83 | 202 | 0.0 | 4.0 | 0.00 | 0.00 | 0.00 | 82 | 1015.6 |
| 20260902160518 | 83 | 141 | 0.0 | 5.0 | 0.00 | 0.00 | 0.00 | 83 | 1015.5 |
| 20260902160034 | 82 | 0 | 1.0 | 5.0 | 0.00 | 0.00 | 0.00 | 83 | 1015.4 |
| 20260902155516 | 82 | 264 | 1.0 | 3.0 | 0.00 | 0.00 | 0.00 | 84 | 1015.5 |
| 20260902155020 | 81 | 237 | 0.0 | 3.0 | 0.00 | 0.00 | 0.00 | 83 | 1015.7 |
| 20260902154535 | 81 | 0 | 0.0 | 2.0 | 0.00 | 0.00 | 0.00 | 84 | 1015.6 |
| 20260902154020 | 81 | 0 | 0.0 | 3.0 | 0.00 | 0.00 | 0.00 | 84 | 1015.6 |
| 20260902153523 | 80 | 0 | 1.0 | 3.0 | 0.00 | 0.00 | 0.00 | 85 | 1015.5 |
| 20260902153036 | 80 | 0 | 0.0 | 5.0 | 0.00 | 0.00 | 0.00 | 85 | 1015.5 |
| 20260902152517 | 80 | 0 | 0.0 | 5.0 | 0.00 | 0.00 | 0.00 | 85 | 1015.5 |
| 20260902152019 | 80 | 0 | 0.0 | 3.0 | 0.00 | 0.00 | 0.00 | 86 | 1015.4 |
| 20260902151536 | 80 | 171 | 0.0 | 3.0 | 0.00 | 0.00 | 0.00 | 86 | 1015.6 |
| 20260902151020 | 80 | 204 | 0.0 | 5.0 | 0.00 | 0.00 | 0.00 | 85 | 1015.5 |
| 20260902150521 | 80 | 0 | 1.0 | 5.0 | 0.00 | 0.00 | 0.00 | 86 | 1015.6 |
| 20260902150038 | 80 | 0 | 0.0 | 3.0 | 0.00 | 0.00 | 0.00 | 87 | 1015.6 |
| 20260902145517 | 79 | 150 | 0.0 | 3.0 | 0.00 | 0.00 | 0.00 | 86 | 1015.7 |
| 20260902145016 | 79 | 172 | 0.0 | 3.0 | 0.00 | 0.00 | 0.00 | 87 | 1015.7 |
| 20260902144537 | 79 | 0 | 0.0 | 4.0 | 0.00 | 0.00 | 0.00 | 88 | 1015.7 |
| 20260902144018 | 78 | 158 | 0.0 | 4.0 | 0.00 | 0.00 | 0.00 | 89 | 1015.6 |
| 20260902143522 | 78 | 245 | 0.0 | 4.0 | 0.00 | 0.00 | 0.00 | 89 | 1015.6 |
| 20260902143038 | 78 | 0 | 0.0 | 4.0 | 0.00 | 0.00 | 0.00 | 89 | 1015.6 |
| 20260902142518 | 77 | 0 | 1.0 | 4.0 | 0.00 | 0.00 | 0.00 | 90 | 1015.7 |
| 20260902142019 | 77 | 0 | 0.0 | 3.0 | 0.00 | 0.00 | 0.00 | 91 | 1015.6 |
| 20260902141538 | 76 | 0 | 0.0 | 0.0 | 0.00 | 0.00 | 0.00 | 91 | 1015.5 |
| 20260902141020 | 76 | 0 | 0.0 | 0.0 | 0.00 | 0.00 | 0.00 | 91 | 1015.4 |
| 20260902140516 | 76 | 0 | 0.0 | 0.0 | 0.00 | 0.00 | 0.00 | 91 | 1015.5 |
| 20260902140040 | 76 | 0 | 0.0 | 0.0 | 0.00 | 0.00 | 0.00 | 91 | 1015.5 |
| 20260902135518 | 76 | 0 | 0.0 | 2.0 | 0.00 | 0.00 | 0.00 | 91 | 1015.5 |
| 20260902135016 | 76 | 0 | 0.0 | 3.0 | 0.00 | 0.00 | 0.00 | 91 | 1015.4 |
| 20260902134538 | 76 | 175 | 0.0 | 3.0 | 0.00 | 0.00 | 0.00 | 91 | 1015.4 |
| 20260902134019 | 75 | 0 | 0.0 | 3.0 | 0.00 | 0.00 | 0.00 | 91 | 1015.4 |
| 20260902133521 | 75 | 0 | 0.0 | 2.0 | 0.00 | 0.00 | 0.00 | 91 | 1015.5 |
| 20260902133035 | 75 | 0 | 0.0 | 2.0 | 0.00 | 0.00 | 0.00 | 92 | 1015.3 |
| 20260902132521 | 75 | 0 | 0.0 | 2.0 | 0.00 | 0.00 | 0.00 | 91 | 1015.3 |
| 20260902132018 | 75 | 0 | 0.0 | 0.0 | 0.00 | 0.00 | 0.00 | 92 | 1015.3 |
| 20260902131538 | 75 | 0 | 0.0 | 0.0 | 0.00 | 0.00 | 0.00 | 91 | 1015.3 |
| 20260902131018 | 75 | 0 | 0.0 | 0.0 | 0.00 | 0.00 | 0.00 | 91 | 1015.2 |
| 20260902130518 | 75 | 0 | 0.0 | 0.0 | 0.00 | 0.00 | 0.00 | 91 | 1015.3 |
| 20260902130042 | 75 | 0 | 0.0 | 1.0 | 0.00 | 0.00 | 0.00 | 92 | 1015.2 |
| 20260902125519 | 75 | 0 | 0.0 | 1.0 | 0.00 | 0.00 | 0.00 | 92 | 1015.1 |
| 20260902125022 | 74 | 0 | 0.0 | 0.0 | 0.00 | 0.00 | 0.00 | 92 | 1015.2 |
| 20260902124535 | 74 | 0 | 0.0 | 0.0 | 0.00 | 0.00 | 0.00 | 92 | 1015.2 |
| 20260902124018 | 74 | 0 | 0.0 | 1.0 | 0.00 | 0.00 | 0.00 | 92 | 1015.4 |
| 20260902123519 | 74 | 0 | 0.0 | 1.0 | 0.00 | 0.00 | 0.00 | 92 | 1015.2 |
| 20260902123035 | 74 | 0 | 0.0 | 1.0 | 0.00 | 0.00 | 0.00 | 92 | 1015.2 |
| 20260902122519 | 74 | 0 | 0.0 | 0.0 | 0.00 | 0.00 | 0.00 | 92 | 1015.1 |
| 20260902122016 | 74 | 0 | 0.0 | 0.0 | 0.00 | 0.00 | 0.00 | 92 | 1015.1 |
| 20260902121538 | 74 | 0 | 0.0 | 0.0 | 0.00 | 0.00 | 0.00 | 92 | 1015.0 |
| 20260902121018 | 73 | 0 | 0.0 | 0.0 | 0.00 | 0.00 | 0.00 | 92 | 1015.1 |
| 20260902120518 | 73 | 0 | 0.0 | 0.0 | 0.00 | 0.00 | 0.00 | 92 | 1015.2 |
| 20260902120039 | 73 | 0 | 0.0 | 0.0 | 0.00 | 0.00 | 0.00 | 92 | 1015.2 |
| 20260902115520 | 73 | 0 | 0.0 | 0.0 | 0.00 | 0.00 | 0.00 | 92 | 1015.3 |
| 20260902115020 | 73 | 0 | 0.0 | 0.0 | 0.00 | 0.00 | 0.00 | 91 | 1015.4 |
| 20260902114602 | 73 | 0 | 0.0 | 0.0 | 0.00 | 0.00 | 0.00 | 92 | 1015.4 |
| 20260902114023 | 73 | 0 | 0.0 | 0.0 | 0.00 | 0.00 | 0.00 | 91 | 1015.4 |
| 20260902113519 | 73 | 0 | 0.0 | 0.0 | 0.00 | 0.00 | 0.00 | 91 | 1015.4 |
| 20260902113047 | 73 | 0 | 0.0 | 0.0 | 0.00 | 0.00 | 0.00 | 91 | 1015.3 |
| 20260902112517 | 73 | 0 | 0.0 | 0.0 | 0.00 | 0.00 | 0.00 | 91 | 1015.2 |
| 20260902112019 | 73 | 0 | 0.0 | 0.0 | 0.00 | 0.00 | 0.00 | 91 | 1015.2 |
| 20260902111537 | 73 | 0 | 0.0 | 0.0 | 0.00 | 0.00 | 0.00 | 91 | 1015.1 |
| 20260902111016 | 73 | 0 | 0.0 | 0.0 | 0.00 | 0.00 | 0.00 | 91 | 1015.0 |
| 20260902110515 | 73 | 0 | 0.0 | 0.0 | 0.00 | 0.00 | 0.00 | 91 | 1015.0 |
| 20260902110041 | 72 | 0 | 0.0 | 0.0 | 0.00 | 0.00 | 0.00 | 92 | 1014.9 |
| 20260902105517 | 72 | 0 | 0.0 | 0.0 | 0.00 | 0.00 | 0.00 | 92 | 1014.8 |
| 20260902105018 | 72 | 0 | 0.0 | 0.0 | 0.00 | 0.00 | 0.00 | 92 | 1014.6 |
| 20260902104539 | 72 | 0 | 0.0 | 0.0 | 0.00 | 0.00 | 0.00 | 92 | 1014.5 |
| 20260902104019 | 72 | 0 | 0.0 | 0.0 | 0.00 | 0.00 | 0.00 | 92 | 1014.3 |
| 20260902103518 | 72 | 0 | 0.0 | 0.0 | 0.00 | 0.00 | 0.00 | 92 | 1014.3 |
| 20260902103035 | 73 | 0 | 0.0 | 0.0 | 0.00 | 0.00 | 0.00 | 92 | 1014.2 |
| 20260902102522 | 73 | 0 | 0.0 | 0.0 | 0.00 | 0.00 | 0.00 | 92 | 1014.2 |
| 20260902102019 | 73 | 0 | 0.0 | 0.0 | 0.00 | 0.00 | 0.00 | 93 | 1014.3 |
| 20260902101534 | 73 | 0 | 0.0 | 0.0 | 0.00 | 0.00 | 0.00 | 93 | 1014.1 |
| 20260902101018 | 73 | 0 | 0.0 | 0.0 | 0.00 | 0.00 | 0.00 | 93 | 1014.3 |
| 20260902100516 | 73 | 0 | 0.0 | 0.0 | 0.00 | 0.00 | 0.00 | 93 | 1014.3 |
| 20260902100038 | 73 | 0 | 0.0 | 0.0 | 0.00 | 0.00 | 0.00 | 93 | 1014.3 |
| 20260902095521 | 73 | 0 | 0.0 | 0.0 | 0.00 | 0.00 | 0.00 | 93 | 1014.3 |
| 20260902094538 | 73 | 0 | 0.0 | 0.0 | 0.00 | 0.00 | 0.00 | 93 | 1014.1 |
| 20260902094019 | 73 | 0 | 0.0 | 0.0 | 0.00 | 0.00 | 0.00 | 93 | 1014.1 |
| 20260902093520 | 73 | 0 | 0.0 | 0.0 | 0.00 | 0.00 | 0.00 | 93 | 1014.1 |
| 20260902093035 | 73 | 0 | 0.0 | 0.0 | 0.00 | 0.00 | 0.00 | 93 | 1014.1 |
| 20260902092519 | 73 | 0 | 0.0 | 0.0 | 0.00 | 0.00 | 0.00 | 93 | 1014.2 |
| 20260902092019 | 73 | 0 | 0.0 | 0.0 | 0.00 | 0.00 | 0.00 | 93 | 1014.2 |
| 20260902091546 | 73 | 0 | 0.0 | 0.0 | 0.00 | 0.00 | 0.00 | 93 | 1014.2 |
| 20260902091018 | 73 | 0 | 0.0 | 0.0 | 0.00 | 0.00 | 0.00 | 93 | 1014.3 |
| 20260902090516 | 73 | 0 | 0.0 | 0.0 | 0.00 | 0.00 | 0.00 | 93 | 1014.3 |
| 20260902090050 | 73 | 0 | 0.0 | 0.0 | 0.00 | 0.00 | 0.00 | 93 | 1014.5 |
| 20260902085517 | 73 | 0 | 0.0 | 0.0 | 0.00 | 0.00 | 0.00 | 93 | 1014.5 |
| 20260902085018 | 73 | 0 | 0.0 | 0.0 | 0.00 | 0.00 | 0.00 | 93 | 1014.5 |
| 20260902084538 | 73 | 0 | 0.0 | 0.0 | 0.00 | 0.00 | 0.00 | 93 | 1014.3 |
| 20260902084020 | 73 | 0 | 0.0 | 0.0 | 0.00 | 0.00 | 0.00 | 93 | 1014.2 |
| 20260902083518 | 73 | 0 | 0.0 | 0.0 | 0.00 | 0.00 | 0.00 | 93 | 1014.1 |
| 20260902083034 | 73 | 0 | 0.0 | 0.0 | 0.00 | 0.00 | 0.00 | 93 | 1014.1 |
| 20260902082517 | 73 | 0 | 0.0 | 0.0 | 0.00 | 0.00 | 0.00 | 93 | 1014.2 |
| 20260902082019 | 73 | 0 | 0.0 | 0.0 | 0.00 | 0.00 | 0.00 | 93 | 1014.3 |
| 20260902081540 | 73 | 0 | 0.0 | 0.0 | 0.00 | 0.00 | 0.00 | 93 | 1014.3 |
| 20260902081017 | 73 | 0 | 0.0 | 0.0 | 0.00 | 0.00 | 0.00 | 93 | 1014.4 |
| 20260902080516 | 73 | 0 | 0.0 | 0.0 | 0.00 | 0.00 | 0.00 | 93 | 1014.4 |
| 20260902080033 | 73 | 0 | 0.0 | 0.0 | 0.00 | 0.00 | 0.00 | 93 | 1014.5 |
| 20260902075517 | 73 | 0 | 0.0 | 0.0 | 0.00 | 0.00 | 0.00 | 93 | 1014.5 |
| 20260902075019 | 73 | 0 | 0.0 | 0.0 | 0.00 | 0.00 | 0.00 | 93 | 1014.3 |
| 20260902074547 | 73 | 0 | 0.0 | 0.0 | 0.00 | 0.00 | 0.00 | 93 | 1014.3 |
| 20260902074019 | 73 | 0 | 0.0 | 0.0 | 0.00 | 0.00 | 0.00 | 93 | 1014.3 |
| 20260902073520 | 73 | 0 | 0.0 | 0.0 | 0.00 | 0.00 | 0.00 | 93 | 1014.5 |
| 20260902073038 | 74 | 0 | 0.0 | 0.0 | 0.00 | 0.00 | 0.00 | 93 | 1014.5 |
| 20260902072517 | 74 | 0 | 0.0 | 0.0 | 0.00 | 0.00 | 0.00 | 93 | 1014.5 |
| 20260902072020 | 74 | 0 | 0.0 | 0.0 | 0.00 | 0.00 | 0.00 | 93 | 1014.5 |
| 20260902071534 | 74 | 0 | 0.0 | 0.0 | 0.00 | 0.00 | 0.00 | 93 | 1014.4 |
| 20260902071018 | 74 | 0 | 0.0 | 0.0 | 0.00 | 0.00 | 0.00 | 93 | 1014.5 |
| 20260902070516 | 74 | 0 | 0.0 | 0.0 | 0.00 | 0.00 | 0.00 | 93 | 1014.5 |
| 20260902070039 | 74 | 0 | 0.0 | 0.0 | 0.00 | 0.00 | 0.00 | 93 | 1014.5 |
| 20260902065517 | 74 | 0 | 0.0 | 0.0 | 0.00 | 0.00 | 0.00 | 93 | 1014.5 |